[[{"header":{"parameterUnit":"m.s-1","parameterCategory":2,"la1":30.2991,"la2":30.254,"lo1":-89.0895,"lo2":-89.0444,"dy":0.0017,"dx":0.0017,"nx":28,"ny":28,"refTime":"2023-10-28T03:00:00:Z","depth":"0","parameterNumber":2,"parameterNumberName":"U-component_of_CURRENTS"},"data":[0,0,0,0,0,0,0,0,0,0,0,0,0,0,0,0,0,0,0,0,0,0,0,0,0,0,0,0,0,0,0,0,0,0,0,0,0,0,0,0,0,0,0,0,0,0,0,0,0,0,0,0,0,0,0,0,0,0,0.3767,0.3766,0,0.3716,0.3715,0.3715,0.3677,0.3676,0.3676,0.3675,0.3736,0.3738,0.374,0,0,0,0,0,0,0,0,0,0,0,0,0,0.386,0.3859,0.3767,0.3766,0.3765,0.3716,0.3715,0.3715,0.3677,0.3676,0.3675,0.3675,0.3735,0.3738,0.374,0,0,0,0,0,0,0,0,0,0,0,0,0,0.3818,0.3858,0.3767,0.3738,0.3735,0.3716,0.3715,0.3715,0.3677,0.3676,0.3675,0.3674,0.3734,0.3737,0.3741,0.3778,0,0,0.3751,0.3752,0,0,0,0,0,0,0,0,0.382,0.3815,0.3743,0.374,0.3736,0.3699,0.377,0.3741,0.3677,0.3702,0.3675,0.3674,0.3733,0.3736,0.3731,0.3781,0.3784,0.3751,0.3753,0.3754,0.3755,0,0,0,0,0,0,0,0.3823,0.3817,0.3749,0.3742,0.3738,0.3737,0.3731,0.3764,0.3727,0.37,0.3696,0.3686,0.3732,0.3728,0.3732,0.3785,0.3751,0.3754,0.3756,0.3757,0.3916,0.3918,0,0,0,0,0,0,0.3823,0.3819,0.3751,0.3748,0.3774,0.3736,0.3729,0.3714,0.3724,0.3723,0.3687,0.3685,0.3722,0.3728,0.3734,0.3799,0.3754,0.3757,0.3759,0.3914,0.3917,0.3919,0,0,0,0,0,0,0.3826,0.3818,0.3753,0.3781,0.3772,0.3735,0.372,0.3714,0.3711,0.3713,0.3714,0.369,0.3722,0.373,0.3782,0.38,0.3759,0.3762,0.3911,0.3915,0.3918,0.3916,0,0,0,0,0,0,0.3828,0.3819,0.3827,0.378,0.377,0.3754,0.372,0.3713,0.3705,0.3701,0.3717,0.372,0.3722,0.3777,0.3785,0.3804,0.3764,0.3908,0.3913,0.3917,0.3914,0.3919,0.3924,0,0,0,0,0,0.3832,0.3842,0.3827,0.382,0.3776,0.3754,0.375,0.3723,0.3706,0.3715,0.373,0.372,0.381,0.3782,0.379,0.3811,0.3906,0.3911,0.3916,0.3911,0.3918,0.3924,0,0,0,0,0,0,0.3881,0.3837,0.382,0.3815,0.3792,0.3747,0.3754,0.3731,0.3746,0.3749,0.3749,0.3756,0.3817,0.3823,0.3792,0.3874,0.3857,0.3864,0.385,0.3857,0.3862,0.3883,0.3767,0,0,0,0,0,0.3896,0.3896,0.3849,0.3848,0.3837,0.3798,0.3791,0.3768,0.3764,0.3767,0.3776,0.3802,0.3846,0.3856,0.39,0.3937,0.3948,0.396,0.3965,0.3969,0.3996,0.4017,0.4025,0.3936,0.3936,0.3936,0,0,0.3911,0.3891,0.3889,0.3861,0.3839,0.3827,0.3792,0.3782,0.3786,0.3778,0.3807,0.3834,0.3868,0.3915,0.3941,0.3916,0.4002,0.3976,0.3978,0.4004,0.4023,0.4031,0.4038,0.3939,0.3939,0.3938,0,0,0.3941,0.3926,0.3933,0.3913,0.3886,0.3864,0.3862,0.3827,0.3831,0.3849,0.3865,0.3906,0.3937,0.3973,0.3993,0.4061,0.4045,0.4068,0.4089,0.4107,0.4114,0.412,0.4137,0.4145,0.4049,0.4049,0.4049,0,0.3961,0.3948,0.3935,0.3929,0.3907,0.388,0.3867,0.3879,0.3871,0.388,0.3862,0.3935,0.3967,0.4035,0.4064,0.4072,0.4075,0.4049,0.411,0.4117,0.4123,0.4139,0.4147,0.405,0.405,0.405,0.405,0,0.3985,0.397,0.397,0.3951,0.3944,0.3925,0.3918,0.3933,0.3919,0.3912,0.3969,0.4009,0.4041,0.4063,0.4084,0.4156,0.4143,0.4123,0.4082,0.4131,0.4146,0.4154,0.4051,0.405,0.405,0.405,0,0,0.3992,0.3987,0.3977,0.3959,0.3939,0.3924,0.3958,0.3958,0.3978,0.3984,0.4013,0.4087,0.4092,0.4123,0.4154,0.4182,0.4235,0.4173,0.4174,0.4171,0.4272,0.4234,0.4239,0.4207,0.4209,0.421,0.4259,0,0.399,0.3989,0.3985,0.3961,0.3941,0.3933,0.3962,0.3976,0.3992,0.4032,0.4072,0.4129,0.4118,0.4151,0.4173,0.4249,0.426,0.4224,0.4244,0.4246,0.4189,0.425,0.4131,0.4163,0.4268,0.4269,0.427,0,0.3976,0.3977,0.397,0.3943,0.3934,0.3933,0.3949,0.3975,0.4043,0.4061,0.4102,0.4147,0.4237,0.4211,0.4294,0.4265,0.4276,0.4305,0.4305,0.4284,0.4225,0.4136,0.4174,0.4085,0.4283,0.4282,0.4281,0,0.3956,0.3935,0.3932,0.392,0.392,0.3922,0.3924,0.3976,0.4005,0.4105,0.4136,0.421,0.4265,0.4297,0.4356,0.4328,0.4436,0.4388,0.4354,0.435,0.4266,0.4252,0.4207,0.4428,0.4428,0.4428,0.4427,0,0.3927,0.3898,0.3921,0.3912,0.3895,0.3909,0.3918,0.3949,0.4021,0.4056,0.4153,0.4208,0.4289,0.4355,0.4382,0.4407,0.4437,0.4389,0.4371,0.4263,0.4249,0.4181,0.4138,0.4429,0.4429,0.4429,0.4428,0,0.3882,0.3904,0.3877,0.3888,0.3883,0.3873,0.3879,0.3887,0.3986,0.4049,0.4092,0.4219,0.4313,0.4383,0.4467,0.4432,0.4355,0.4464,0.4341,0.4307,0.4168,0.413,0.3917,0.3797,0.443,0.443,0.4429,0,0.3852,0.3851,0.3851,0.382,0.3812,0.3803,0.3784,0.3856,0.3875,0.4041,0.4063,0.4213,0.4289,0.441,0.4428,0.4469,0.4323,0.4339,0.4268,0.4171,0.4115,0.392,0.382,0.4152,0.415,0.4148,0.4146,0,0.378,0.3796,0.3783,0.3733,0.3699,0.367,0.3664,0.368,0.3782,0.3864,0.3976,0.4082,0.4248,0.4259,0.4335,0.4339,0.4137,0.4294,0.4221,0.3933,0.3691,0.3562,0.4114,0.4127,0.4129,0.413,0.4131,0.4132,0.37,0.3666,0.3651,0.3579,0.3552,0.35,0.344,0.3481,0.3516,0.3595,0.3795,0.3898,0.4061,0.4175,0.4142,0.4051,0.4003,0.3944,0.392,0.374,0.3574,0.4094,0.4067,0.4068,0.4069,0.407,0.4072,0,0.3533,0.3512,0.3467,0.3378,0.3293,0.3335,0.3309,0.3246,0.3232,0.3396,0.3492,0.3674,0.3723,0.3819,0.3849,0.3719,0.3512,0.3613,0.3325,0.3256,0.3761,0.3704,0.3562,0.3562,0.3562,0.3562,0.3562,0.3562,0.344,0.3335,0.3307,0.3122,0.3069,0.2927,0.2885,0.2859,0.2927,0.2987,0.3097,0.3258,0.3528,0.3619,0.3529,0.3444,0.3172,0.3023,0.2987,0.3395,0.3423,0.345,0.3385,0.3179,0.3179,0.2344,0.2338,0.2334]},{"header":{"parameterUnit":"m.s-1","parameterCategory":2,"la1":30.2991,"la2":30.254,"lo1":-89.0895,"lo2":-89.0444,"dy":0.0017,"dx":0.0017,"nx":28,"ny":28,"refTime":"2023-10-28T03:00:00:Z","depth":"0","parameterNumber":3,"parameterNumberName":"V-component_of_CURRENTS"},"data":[0,0,0,0,0,0,0,0,0,0,0,0,0,0,0,0,0,0,0,0,0,0,0,0,0,0,0,0,0,0,0,0,0,0,0,0,0,0,0,0,0,0,0,0,0,0,0,0,0,0,0,0,0,0,0,0,0,0,0.016,0.016,0,0.0126,0.0125,0.0124,0.0089,0.0088,0.0088,0.0088,-0.0029,-0.0031,-0.0034,0,0,0,0,0,0,0,0,0,0,0,0,0,0.0136,0.0137,0.016,0.016,0.016,0.0126,0.0125,0.0124,0.0089,0.0088,0.0088,0.0088,-0.0028,-0.0031,-0.0035,0,0,0,0,0,0,0,0,0,0,0,0,0,0.0125,0.0137,0.016,0.0141,0.0139,0.0126,0.0125,0.0124,0.0089,0.0088,0.0088,0.0088,-0.0026,-0.0031,-0.0035,-0.0058,0,0,-0.0049,-0.0051,0,0,0,0,0,0,0,0,0.0126,0.0126,0.0144,0.0142,0.014,0.0114,0.0074,0.006,0.0089,0.0104,0.0088,0.0088,0.0014,0.0006,-0.0004,-0.0063,-0.0068,-0.0049,-0.0052,-0.0054,-0.0055,0,0,0,0,0,0,0,0.0127,0.0127,0.0143,0.0144,0.0141,0.0114,0.0112,0.0071,0.0056,0.0103,0.0101,0.0103,0.0012,0.0001,-0.0007,-0.007,-0.0049,-0.0053,-0.0056,-0.0057,-0.0158,-0.0158,0,0,0,0,0,0,0.0142,0.0128,0.0144,0.0142,0.0136,0.0115,0.0113,0.012,0.0059,0.0051,0.0103,0.0101,0.0009,-0.0001,-0.0011,-0.0017,-0.0054,-0.0058,-0.006,-0.0158,-0.0158,-0.0158,0,0,0,0,0,0,0.0141,0.0144,0.0145,0.0136,0.0135,0.0116,0.0124,0.0119,0.0113,0.0061,0.005,0.0103,0.0008,-0.0005,-0.0038,-0.0023,-0.006,-0.0064,-0.0158,-0.0158,-0.0158,-0.0046,0,0,0,0,0,0,0.0141,0.0144,0.0148,0.0138,0.0136,0.0152,0.0124,0.0119,0.0116,0.0114,0.0057,0.0046,0.0007,-0.003,-0.0042,-0.003,-0.0067,-0.0158,-0.0158,-0.0158,-0.0049,-0.0042,-0.0035,0,0,0,0,0,0.014,0.0157,0.0148,0.015,0.0145,0.0153,0.015,0.0132,0.0117,0.0123,0.0082,0.0048,-0.0039,-0.0034,-0.0047,-0.0036,-0.0158,-0.0158,-0.0158,-0.0052,-0.0043,-0.0036,0,0,0,0,0,0,0.0151,0.0155,0.0145,0.0162,0.0162,0.0149,0.0154,0.0139,0.0112,0.0105,0.005,0.0037,0.0011,-0.0032,-0.0025,-0.0069,-0.0106,-0.0109,-0.0021,-0.0013,-0.0007,0.0028,-0.0071,0,0,0,0,0,0.0155,0.0166,0.0166,0.0179,0.0184,0.0168,0.0166,0.0156,0.0135,0.0124,0.0086,0.0038,-0.0001,-0.0021,-0.0064,-0.0084,-0.0117,-0.009,-0.0083,-0.0076,-0.0059,-0.0092,-0.0085,-0.0158,-0.0158,-0.0158,0,0,0.0162,0.0166,0.0171,0.0181,0.0179,0.02,0.0166,0.0175,0.0188,0.0113,0.0113,0.006,-0.0003,-0.0023,-0.0039,-0.0055,-0.0075,-0.0076,-0.007,-0.0056,-0.0091,-0.0083,-0.0077,-0.0158,-0.0158,-0.0158,0,0,0.0194,0.019,0.0214,0.0222,0.0229,0.0223,0.0231,0.0222,0.0216,0.0204,0.0154,0.0119,0.0057,0.0026,-0.0002,0.0015,-0.0039,-0.001,0.0059,0.0027,0.0034,0.0039,0.0009,0.001,-0.0003,-0.0003,-0.0003,0,0.0203,0.0237,0.0222,0.0254,0.0273,0.0241,0.0281,0.0269,0.0248,0.0249,0.0216,0.0139,0.0085,0.0069,0.0074,0.0035,0.0005,0.0039,0.004,0.0045,0.0048,0.0015,0.0016,0.0002,0.0002,0.0001,0.0001,0,0.0258,0.0286,0.0306,0.0337,0.035,0.0379,0.0373,0.0377,0.0356,0.0337,0.0313,0.024,0.0198,0.0169,0.0127,0.0125,0.0092,0.0054,0.003,0.0063,0.0025,0.0024,0.001,0.0008,0.0006,0.0005,0,0,0.0296,0.0337,0.0349,0.0384,0.0401,0.0427,0.045,0.0469,0.0492,0.0441,0.0464,0.0384,0.0338,0.0303,0.0241,0.0213,0.0208,0.0154,0.015,0.0144,0.0141,0.013,0.0127,0.0172,0.0172,0.0173,0.0105,0,0.0353,0.0431,0.0434,0.0513,0.0559,0.0549,0.058,0.0583,0.0565,0.0573,0.0497,0.0481,0.039,0.0376,0.0332,0.0242,0.0209,0.023,0.0092,0.0088,0.0091,0.0127,0.0168,0.0113,0.0103,0.0103,0.0103,0,0.0419,0.0466,0.0552,0.062,0.0641,0.0677,0.0732,0.0754,0.0742,0.0725,0.0685,0.0621,0.0573,0.0491,0.036,0.0377,0.0274,0.0196,0.019,0.0144,0.0076,0.0074,0.011,-0.0061,0.01,0.01,0.0101,0,0.0473,0.0556,0.0631,0.0656,0.0717,0.076,0.0792,0.0802,0.0841,0.0828,0.0849,0.0752,0.0726,0.0588,0.0419,0.0392,0.0276,0.0213,0.0103,0.01,0.0092,0.0088,-0.0034,0.0126,0.0127,0.0127,0.0127,0,0.0542,0.0608,0.0668,0.0713,0.0818,0.0831,0.0925,0.0938,0.0968,0.1033,0.0935,0.0964,0.0751,0.0653,0.0476,0.0299,0.0314,0.0132,0.0091,0.013,0.0131,-0.0056,-0.0156,0.0124,0.0125,0.0125,0.0126,0,0.0596,0.0629,0.0727,0.0809,0.0847,0.0924,0.1029,0.1088,0.1106,0.1193,0.1203,0.1128,0.1008,0.0789,0.057,0.0391,0.012,0.014,0.0202,0.017,-0.0098,-0.0192,-0.0353,-0.0433,0.001,0.001,0.0009,0,0.0631,0.0683,0.0801,0.0868,0.0916,0.1026,0.1103,0.1154,0.1228,0.1306,0.1361,0.128,0.1253,0.0927,0.0602,0.0303,0.0117,0.0124,0.0076,-0.0089,-0.0226,-0.0295,-0.0355,0.0101,0.0101,0.0101,0.0102,0,0.0702,0.0738,0.0819,0.0951,0.1053,0.1173,0.1292,0.1375,0.1453,0.1545,0.1641,0.1636,0.1341,0.1069,0.0649,0.0422,0.0023,0.0119,-0.0066,-0.0166,-0.0233,-0.0337,0.0111,0.0104,0.0104,0.0104,0.0103,0.0103,0.0758,0.0826,0.0922,0.1051,0.1165,0.131,0.1422,0.156,0.1719,0.1872,0.1848,0.1901,0.1509,0.0953,0.0612,0.0043,0.0019,-0.0129,-0.023,-0.0286,-0.0357,0.0102,0.0054,0.0054,0.0053,0.0053,0.0053,0,0.0827,0.0899,0.1014,0.1169,0.1292,0.1346,0.1539,0.1666,0.1877,0.2032,0.2128,0.2017,0.1512,0.0974,0.0217,-0.0211,-0.0376,-0.0451,-0.0545,-0.0594,-0.0193,-0.0182,-0.0264,-0.0264,-0.0263,-0.0263,-0.0263,-0.0263,0.0868,0.098,0.1034,0.1244,0.1353,0.1533,0.1649,0.1855,0.2018,0.224,0.2325,0.2346,0.1986,0.0627,-0.0318,-0.0558,-0.0842,-0.0904,-0.1072,-0.0807,-0.0785,-0.0764,-0.0778,-0.0983,-0.0984,-0.1404,-0.1408,-0.1411]}],[{"header":{"parameterUnit":"m.s-1","parameterCategory":2,"la1":30.2991,"la2":30.254,"lo1":-89.0895,"lo2":-89.0444,"dy":0.0017,"dx":0.0017,"nx":28,"ny":28,"refTime":"2023-10-28T03:00:00:Z","depth":"2","parameterNumber":2,"parameterNumberName":"U-component_of_CURRENTS"},"data":[0,0,0,0,0,0,0,0,0,0,0,0,0,0,0,0,0,0,0,0,0,0,0,0,0,0,0,0,0,0,0,0,0,0,0,0,0,0,0,0,0,0,0,0,0,0,0,0,0,0,0,0,0,0,0,0,0,0,0.3089,0.309,0,0.3123,0.3123,0.3124,0.3122,0.3122,0.3122,0.3121,0.3104,0.3104,0.3104,0,0,0,0,0,0,0,0,0,0,0,0,0,0.3033,0.3033,0.3089,0.309,0.3091,0.3123,0.3124,0.3124,0.3122,0.3122,0.3122,0.3121,0.3104,0.3104,0.3104,0,0,0,0,0,0,0,0,0,0,0,0,0,0.3058,0.3034,0.3089,0.3096,0.3098,0.3123,0.3124,0.3124,0.3122,0.3122,0.3122,0.3121,0.3104,0.3104,0.3103,0.3106,0,0,0.3102,0.3102,0,0,0,0,0,0,0,0,0.3056,0.3059,0.3095,0.3096,0.3097,0.3121,0.3097,0.3116,0.3122,0.3109,0.3121,0.3121,0.3108,0.3107,0.311,0.3105,0.3104,0.3102,0.3102,0.3102,0.3101,0,0,0,0,0,0,0,0.3054,0.3058,0.3099,0.3095,0.3097,0.3102,0.3104,0.3101,0.3106,0.311,0.3111,0.312,0.3107,0.311,0.3109,0.3104,0.3102,0.3102,0.3101,0.3101,0.3165,0.3167,0,0,0,0,0,0,0.3057,0.3056,0.3098,0.3101,0.308,0.3103,0.3106,0.3111,0.3107,0.3107,0.3121,0.312,0.3111,0.311,0.3108,0.3154,0.3102,0.3101,0.3101,0.3164,0.3166,0.3168,0,0,0,0,0,0,0.3056,0.306,0.3097,0.3082,0.3088,0.3105,0.311,0.3112,0.313,0.3116,0.3115,0.314,0.3111,0.3109,0.3129,0.3152,0.3101,0.3101,0.3161,0.3164,0.3167,0.3218,0,0,0,0,0,0,0.3054,0.3059,0.3068,0.3082,0.3089,0.3129,0.3111,0.3113,0.3137,0.3138,0.3131,0.3129,0.311,0.313,0.3128,0.315,0.31,0.3159,0.3163,0.3166,0.3213,0.3222,0.3229,0,0,0,0,0,0.3052,0.3062,0.3068,0.3073,0.3098,0.3131,0.3135,0.3143,0.3139,0.3156,0.3155,0.313,0.3152,0.3131,0.3129,0.3151,0.3157,0.3161,0.3166,0.321,0.322,0.3229,0,0,0,0,0,0,0.3042,0.3064,0.307,0.3087,0.3116,0.3132,0.3151,0.3156,0.3169,0.3171,0.315,0.3148,0.318,0.3163,0.314,0.3185,0.3153,0.3157,0.3187,0.3197,0.3204,0.3234,0.31,0,0,0,0,0,0.3045,0.3058,0.3086,0.3103,0.3121,0.314,0.3155,0.3165,0.3179,0.3185,0.3181,0.3183,0.3195,0.3194,0.3203,0.3218,0.3224,0.3235,0.3243,0.325,0.3276,0.3301,0.3313,0.3183,0.3183,0.3183,0,0,0.3043,0.3061,0.3067,0.3102,0.3124,0.3155,0.3148,0.3184,0.321,0.318,0.3213,0.3215,0.321,0.3236,0.3247,0.3222,0.3292,0.3255,0.3261,0.3284,0.3307,0.332,0.3331,0.3186,0.3185,0.3185,0,0,0.3051,0.307,0.3086,0.3116,0.3161,0.3177,0.3194,0.3224,0.3243,0.3268,0.3267,0.3292,0.3286,0.3303,0.3305,0.3365,0.3341,0.3362,0.3411,0.3435,0.3446,0.3455,0.348,0.3491,0.3353,0.3353,0.3354,0,0.3052,0.307,0.3099,0.3131,0.3155,0.3191,0.3218,0.3251,0.3283,0.3299,0.3285,0.3322,0.3323,0.3366,0.3396,0.3383,0.3391,0.3368,0.3444,0.3454,0.3463,0.3486,0.3497,0.3356,0.3356,0.3356,0.3355,0,0.307,0.3093,0.3112,0.3159,0.3194,0.3226,0.3277,0.3314,0.3329,0.3347,0.3397,0.3409,0.3426,0.3435,0.3434,0.3504,0.3489,0.3457,0.3415,0.3479,0.3499,0.351,0.3361,0.336,0.3359,0.3358,0,0,0.3046,0.3108,0.3116,0.3139,0.3208,0.3238,0.3299,0.3352,0.3392,0.3421,0.3464,0.3507,0.3516,0.3526,0.3534,0.3567,0.3642,0.3548,0.3547,0.3566,0.3701,0.3637,0.3643,0.3615,0.3617,0.3619,0.3689,0,0.3049,0.3096,0.313,0.3181,0.321,0.3265,0.3318,0.3377,0.3421,0.3477,0.3511,0.3561,0.3549,0.3573,0.3605,0.3646,0.3676,0.3627,0.3645,0.3646,0.3575,0.3655,0.3371,0.3405,0.37,0.3702,0.3703,0,0.3047,0.3082,0.3121,0.3188,0.3207,0.3248,0.3336,0.3391,0.3485,0.352,0.3574,0.3607,0.3692,0.3663,0.3749,0.3716,0.3726,0.3742,0.3743,0.3679,0.3604,0.3391,0.3414,0.3722,0.3721,0.3719,0.3718,0,0.3002,0.3071,0.3096,0.3121,0.3207,0.3242,0.3298,0.3396,0.345,0.3568,0.3608,0.369,0.3745,0.3778,0.382,0.3791,0.3901,0.3847,0.3795,0.379,0.3552,0.3522,0.3903,0.3903,0.3902,0.3902,0.3902,0,0.2975,0.2998,0.308,0.3096,0.3147,0.3224,0.3291,0.3366,0.3473,0.3536,0.3632,0.3695,0.378,0.3842,0.3855,0.3873,0.3919,0.3839,0.3815,0.3562,0.3534,0.3807,0.3795,0.3905,0.3904,0.3904,0.3903,0,0.291,0.2959,0.2999,0.309,0.3122,0.3166,0.3278,0.3321,0.3445,0.3537,0.3581,0.3723,0.3816,0.3876,0.3955,0.3914,0.3939,0.3923,0.3632,0.3574,0.3803,0.3793,0.388,0.3878,0.3877,0.3876,0.3875,0,0.2875,0.2887,0.2981,0.3004,0.3043,0.3119,0.3158,0.3292,0.3346,0.3537,0.3567,0.3718,0.3786,0.3887,0.387,0.3884,0.3935,0.3606,0.3504,0.3838,0.3806,0.3798,0.379,0.3206,0.3199,0.3194,0.319,0,0.2811,0.2847,0.2879,0.293,0.2974,0.3018,0.3097,0.3137,0.3293,0.337,0.3488,0.3574,0.3706,0.361,0.3652,0.3612,0.3585,0.3504,0.3925,0.3263,0.321,0.3176,0.3189,0.3144,0.3149,0.3152,0.3155,0.3157,0.2758,0.2764,0.2806,0.2835,0.2879,0.2895,0.289,0.2972,0.3033,0.3123,0.3301,0.3324,0.339,0.3319,0.322,0.3145,0.3392,0.3218,0.323,0.3249,0.3166,0.3114,0.3015,0.3019,0.3022,0.3025,0.3027,0,0.2672,0.2681,0.2704,0.2722,0.27,0.2775,0.2812,0.2772,0.2773,0.2903,0.2973,0.2783,0.2745,0.28,0.2634,0.2642,0.2578,0.2514,0.2398,0.2448,0.2492,0.2365,0.2005,0.2001,0.1997,0.1994,0,0,0.2629,0.2596,0.2594,0.2525,0.2537,0.2468,0.2458,0.243,0.2469,0.244,0.2436,0.2649,0.2754,0.2344,0.2298,0.2119,0.2256,0.2034,0.2869,0.2786,0.2824,0.293,0.2797,0,0,0,0,0]},{"header":{"parameterUnit":"m.s-1","parameterCategory":2,"la1":30.2991,"la2":30.254,"lo1":-89.0895,"lo2":-89.0444,"dy":0.0017,"dx":0.0017,"nx":28,"ny":28,"refTime":"2023-10-28T03:00:00:Z","depth":"2","parameterNumber":3,"parameterNumberName":"V-component_of_CURRENTS"},"data":[0,0,0,0,0,0,0,0,0,0,0,0,0,0,0,0,0,0,0,0,0,0,0,0,0,0,0,0,0,0,0,0,0,0,0,0,0,0,0,0,0,0,0,0,0,0,0,0,0,0,0,0,0,0,0,0,0,0,0.0258,0.0258,0,0.0213,0.0213,0.0212,0.0177,0.0176,0.0176,0.0176,0.0115,0.0113,0.0112,0,0,0,0,0,0,0,0,0,0,0,0,0,0.0261,0.0261,0.0259,0.0258,0.0258,0.0213,0.0213,0.0212,0.0177,0.0176,0.0176,0.0176,0.0115,0.0113,0.0112,0,0,0,0,0,0,0,0,0,0,0,0,0,0.0241,0.0261,0.0259,0.0236,0.0234,0.0213,0.0212,0.0212,0.0177,0.0176,0.0176,0.0176,0.0116,0.0114,0.0111,0.0104,0,0,0.0105,0.0104,0,0,0,0,0,0,0,0,0.0242,0.0241,0.024,0.0238,0.0235,0.0202,0.0191,0.0175,0.0177,0.0197,0.0176,0.0176,0.0144,0.0139,0.0129,0.0101,0.0098,0.0105,0.0103,0.0102,0.0102,0,0,0,0,0,0,0,0.0244,0.0242,0.0239,0.0239,0.0236,0.021,0.0207,0.0187,0.0171,0.0195,0.0192,0.019,0.0142,0.0131,0.0127,0.0097,0.0105,0.0103,0.0101,0.0101,0.0054,0.0054,0,0,0,0,0,0,0.0256,0.0244,0.024,0.0238,0.024,0.021,0.0207,0.0211,0.0171,0.0165,0.019,0.0189,0.0135,0.013,0.0125,0.0129,0.0102,0.01,0.0099,0.0054,0.0054,0.0054,0,0,0,0,0,0,0.0256,0.0256,0.0242,0.024,0.0237,0.0211,0.0216,0.0211,0.0203,0.0168,0.0162,0.0189,0.0135,0.0128,0.0115,0.0126,0.0099,0.0097,0.0054,0.0054,0.0054,0.0128,0,0,0,0,0,0,0.0256,0.0257,0.0262,0.0242,0.0238,0.0241,0.0216,0.021,0.0203,0.02,0.0165,0.0159,0.0134,0.0119,0.0113,0.0123,0.0096,0.0054,0.0054,0.0054,0.0125,0.013,0.0135,0,0,0,0,0,0.0257,0.0272,0.0262,0.0262,0.0246,0.0242,0.0238,0.0217,0.0203,0.0207,0.0182,0.016,0.0115,0.0117,0.0111,0.012,0.0054,0.0054,0.0054,0.0123,0.0129,0.0135,0,0,0,0,0,0,0.0275,0.0269,0.0258,0.027,0.026,0.0237,0.024,0.0223,0.0205,0.0201,0.0166,0.0158,0.0148,0.0122,0.0126,0.0104,0.0079,0.0078,0.0134,0.0139,0.0144,0.0163,0.0094,0,0,0,0,0,0.0282,0.0293,0.0278,0.0288,0.0287,0.0263,0.0257,0.0243,0.0226,0.0217,0.0193,0.0164,0.0143,0.0133,0.0109,0.0102,0.007,0.01,0.0105,0.011,0.0119,0.008,0.0083,0.0055,0.0055,0.0055,0,0,0.029,0.029,0.0295,0.0293,0.0283,0.0292,0.0259,0.0259,0.0265,0.0214,0.0215,0.0181,0.0144,0.0135,0.0128,0.0117,0.0099,0.011,0.0114,0.0122,0.0081,0.0083,0.0086,0.0055,0.0055,0.0055,0,0,0.0321,0.0316,0.0336,0.0334,0.0327,0.0315,0.0319,0.0299,0.0291,0.0283,0.0248,0.0224,0.0191,0.017,0.0153,0.0169,0.0125,0.0156,0.02,0.0162,0.0164,0.0166,0.0128,0.0126,0.016,0.0161,0.0161,0,0.033,0.0356,0.034,0.0358,0.0367,0.0332,0.0356,0.0343,0.032,0.0319,0.0294,0.0242,0.0209,0.0201,0.0204,0.0182,0.0152,0.0186,0.017,0.0171,0.0171,0.0132,0.0129,0.0164,0.0164,0.0163,0.0163,0,0.0376,0.0394,0.0408,0.0424,0.0428,0.0443,0.0428,0.0428,0.0408,0.0387,0.0368,0.0316,0.0287,0.0267,0.0242,0.0232,0.0206,0.0181,0.0161,0.0179,0.0136,0.0131,0.0169,0.0168,0.0167,0.0166,0,0,0.0407,0.0435,0.0441,0.0465,0.0466,0.0481,0.0495,0.0501,0.0516,0.0468,0.0479,0.0423,0.0385,0.0363,0.0319,0.0283,0.0256,0.0241,0.0237,0.0213,0.0171,0.0156,0.0149,0.0228,0.0228,0.0228,0.014,0,0.045,0.0506,0.0506,0.056,0.0589,0.0574,0.0594,0.059,0.0573,0.057,0.0505,0.0491,0.0425,0.0413,0.0366,0.029,0.0246,0.0282,0.0148,0.0144,0.0137,0.0144,0.0173,0.0097,0.0134,0.0134,0.0133,0,0.0498,0.0533,0.0596,0.0642,0.0654,0.0679,0.0716,0.0729,0.0709,0.0691,0.0652,0.0597,0.0545,0.0482,0.0353,0.038,0.0284,0.0212,0.0206,0.0166,0.0121,0.0083,0.0086,0.0124,0.0125,0.0125,0.0126,0,0.0543,0.0599,0.0658,0.0673,0.0713,0.0745,0.0767,0.0768,0.0796,0.0772,0.0782,0.069,0.0662,0.053,0.0378,0.0367,0.0229,0.0192,0.0084,0.0081,0.0066,0.0064,0.0094,0.0094,0.0094,0.0094,0.0095,0,0.0597,0.0642,0.0689,0.0722,0.0802,0.0806,0.0878,0.0881,0.0897,0.0944,0.0852,0.0864,0.0673,0.057,0.0412,0.0241,0.025,0.0096,0.006,0.0092,0.0092,0.0085,0.0085,0.0091,0.0092,0.0092,0.0093,0,0.064,0.0665,0.0737,0.0798,0.0827,0.0886,0.0964,0.1009,0.1014,0.1076,0.1076,0.0996,0.0868,0.0665,0.0454,0.0302,0.0127,0.0058,0.0109,0.0081,-0.0007,-0.0002,-0.0068,-0.007,-0.0071,-0.0071,-0.0072,0,0.0668,0.0711,0.08,0.0851,0.0886,0.0972,0.1031,0.1067,0.1124,0.1166,0.1204,0.1105,0.1054,0.0735,0.0447,0.0166,0.0125,0.0001,-0.0018,0.0006,-0.0022,-0.0016,-0.001,-0.0016,-0.0016,-0.0016,-0.0016,0,0.0722,0.075,0.0812,0.0917,0.0996,0.1094,0.1187,0.1253,0.1308,0.1366,0.1417,0.1383,0.1093,0.0816,0.0428,0.0238,0.0048,-0.001,0.0001,0.0028,0.005,0.0024,0.0029,-0.0018,-0.0017,-0.0017,-0.0017,-0.0017,0.076,0.0811,0.0888,0.099,0.1083,0.1205,0.1294,0.1399,0.1516,0.1607,0.157,0.1525,0.1212,0.0723,0.0386,0.0031,0.0051,-0.0077,-0.0074,-0.0072,-0.0043,-0.0023,-0.01,-0.01,-0.01,-0.01,-0.0101,0,0.0805,0.0862,0.0953,0.1075,0.1178,0.1228,0.1387,0.1481,0.1634,0.1704,0.1742,0.1452,0.1141,0.0773,0.0253,-0.0052,-0.0077,-0.0154,-0.0115,-0.0111,-0.0108,-0.008,-0.0147,-0.0148,-0.0149,-0.015,0,0,0.0829,0.0913,0.0957,0.1127,0.122,0.1372,0.147,0.1617,0.1708,0.1782,0.1755,0.1686,0.1254,0.0869,0.0453,0.0149,0.0088,0.0088,0.0162,0.0263,0.027,-0.0024,0.0029,0,0,0,0,0]}],[{"header":{"parameterUnit":"m.s-1","parameterCategory":2,"la1":30.2991,"la2":30.254,"lo1":-89.0895,"lo2":-89.0444,"dy":0.0017,"dx":0.0017,"nx":28,"ny":28,"refTime":"2023-10-28T03:00:00:Z","depth":"4","parameterNumber":2,"parameterNumberName":"U-component_of_CURRENTS"},"data":[0,0,0,0,0,0,0,0,0,0,0,0,0,0,0,0,0,0,0,0,0,0,0,0,0,0,0,0,0,0,0,0,0,0,0,0,0,0,0,0,0,0,0,0,0,0,0,0,0,0,0,0,0,0,0,0,0,0,0.1999,0.2,0,0.2089,0.209,0.2091,0.2158,0.2159,0.2159,0.216,0.2207,0.2207,0.2207,0,0,0,0,0,0,0,0,0,0,0,0,0,0.1883,0.1884,0.1999,0.2,0.2002,0.2089,0.209,0.2091,0.2157,0.2159,0.216,0.2161,0.2207,0.2207,0.2207,0,0,0,0,0,0,0,0,0,0,0,0,0,0.1945,0.1884,0.1998,0.2048,0.2054,0.2089,0.209,0.2091,0.2157,0.2159,0.216,0.2161,0.2206,0.2207,0.2207,0.2182,0,0,0.2209,0.2209,0,0,0,0,0,0,0,0,0.1941,0.1949,0.2039,0.2045,0.2051,0.2117,0.2067,0.2121,0.2157,0.2114,0.216,0.2162,0.2174,0.2177,0.2186,0.2184,0.2186,0.2209,0.2209,0.221,0.221,0,0,0,0,0,0,0,0.1937,0.1945,0.203,0.2041,0.2048,0.2066,0.2076,0.2077,0.2131,0.2118,0.2124,0.214,0.2177,0.2186,0.2188,0.2187,0.2209,0.2209,0.221,0.221,0.2302,0.2304,0,0,0,0,0,0,0.1933,0.1941,0.2028,0.2034,0.2003,0.2068,0.2079,0.2091,0.2132,0.2141,0.2138,0.2143,0.2184,0.2187,0.219,0.2278,0.221,0.221,0.221,0.23,0.2303,0.2305,0,0,0,0,0,0,0.193,0.1939,0.2024,0.1993,0.2006,0.2069,0.2082,0.2092,0.2148,0.2149,0.2157,0.2189,0.2185,0.2189,0.2234,0.2276,0.221,0.2211,0.2298,0.2301,0.2304,0.2379,0,0,0,0,0,0,0.1926,0.1937,0.1963,0.1992,0.2007,0.2076,0.2081,0.2093,0.2155,0.2162,0.2194,0.2198,0.2187,0.2233,0.2234,0.2275,0.2211,0.2295,0.2299,0.2303,0.2374,0.2385,0.2394,0,0,0,0,0,0.1921,0.1943,0.1963,0.1975,0.2034,0.2078,0.2088,0.2134,0.2157,0.2188,0.2213,0.2199,0.226,0.2235,0.2236,0.2278,0.2293,0.2298,0.2303,0.237,0.2383,0.2393,0,0,0,0,0,0,0.1908,0.1953,0.1976,0.2012,0.2059,0.2092,0.2131,0.2158,0.2203,0.2223,0.2219,0.2224,0.2283,0.227,0.2243,0.2319,0.2277,0.2282,0.2327,0.2339,0.2349,0.2369,0.2212,0,0,0,0,0,0.1915,0.1947,0.1992,0.2027,0.2055,0.2101,0.2133,0.2167,0.2202,0.2227,0.2249,0.2273,0.2295,0.2311,0.2327,0.2359,0.2358,0.239,0.24,0.2408,0.2427,0.2457,0.2471,0.2321,0.2321,0.2321,0,0,0.192,0.1951,0.1971,0.2028,0.2069,0.2113,0.2125,0.2189,0.2235,0.2221,0.2297,0.2312,0.2314,0.236,0.2384,0.2358,0.2452,0.2414,0.2421,0.2436,0.2463,0.2478,0.2491,0.2324,0.2324,0.2323,0,0,0.1934,0.1978,0.2008,0.2051,0.2124,0.2152,0.2181,0.2242,0.2287,0.2344,0.2357,0.2402,0.2427,0.2446,0.2451,0.2524,0.2508,0.2535,0.2594,0.2623,0.2635,0.2646,0.2667,0.2679,0.2534,0.2534,0.2534,0,0.1945,0.1981,0.2026,0.2069,0.2111,0.2174,0.2219,0.2269,0.2341,0.2374,0.2382,0.2456,0.2467,0.2518,0.2557,0.2547,0.256,0.2545,0.2635,0.2646,0.2656,0.2674,0.2687,0.2538,0.2538,0.2537,0.2537,0,0.1968,0.2018,0.2045,0.2116,0.2168,0.2221,0.2292,0.2356,0.241,0.2448,0.2531,0.2554,0.2595,0.2612,0.261,0.2692,0.2677,0.2646,0.2602,0.2675,0.269,0.2702,0.2544,0.2543,0.2541,0.254,0,0,0.194,0.2039,0.2054,0.2098,0.2199,0.2241,0.2329,0.2409,0.2473,0.2542,0.2612,0.2672,0.27,0.2712,0.2725,0.2763,0.285,0.275,0.275,0.2766,0.2921,0.2733,0.2727,0.2838,0.284,0.2842,0.2904,0,0.195,0.2022,0.2074,0.2162,0.2207,0.2293,0.2367,0.2455,0.2527,0.2612,0.2662,0.2736,0.2733,0.2775,0.2813,0.285,0.2885,0.2837,0.2853,0.2854,0.2672,0.2735,0.285,0.2913,0.2915,0.2917,0.2918,0,0.1948,0.2001,0.2077,0.2189,0.222,0.2288,0.2417,0.2492,0.2615,0.2675,0.2753,0.2798,0.2894,0.2872,0.2962,0.2935,0.2948,0.296,0.2961,0.2768,0.2686,0.2824,0.2939,0.2937,0.2936,0.2934,0.2933,0,0.189,0.2003,0.2062,0.2102,0.2235,0.2301,0.2384,0.2513,0.2587,0.2733,0.2792,0.289,0.296,0.2997,0.3036,0.3016,0.3113,0.307,0.2906,0.2893,0.301,0.2998,0.3126,0.3126,0.3126,0.3126,0.3125,0,0.1855,0.1913,0.2051,0.2084,0.2181,0.2288,0.24,0.2499,0.2635,0.2713,0.2829,0.289,0.3002,0.306,0.307,0.3022,0.3134,0.2933,0.2899,0.3041,0.3031,0.3018,0.3005,0.3128,0.3127,0.3127,0.3127,0,0.1776,0.1862,0.1947,0.2099,0.2156,0.2232,0.2406,0.247,0.2622,0.2728,0.2783,0.2929,0.3001,0.3068,0.3141,0.3045,0.303,0.2982,0.3149,0.3121,0.2785,0.2775,0.2799,0.2793,0.2788,0.2783,0.278,0,0.1734,0.177,0.1943,0.1999,0.2076,0.2204,0.228,0.2451,0.2514,0.2717,0.2741,0.2883,0.2955,0.2895,0.2988,0.298,0.2942,0.291,0.2833,0.2788,0.2754,0.2752,0.2749,0.2772,0.277,0.2769,0.2768,0,0.1658,0.1738,0.1806,0.1923,0.2019,0.2106,0.2229,0.226,0.2439,0.2596,0.2634,0.2666,0.2738,0.2776,0.2794,0.2781,0.2916,0.2855,0.2865,0.2793,0.2755,0.2726,0.2729,0.275,0.2752,0.2754,0.2755,0,0.161,0.1638,0.174,0.1825,0.1931,0.1968,0.2055,0.212,0.2203,0.2414,0.2425,0.2565,0.2713,0.2674,0.269,0.2666,0.2617,0.2515,0.2541,0.2562,0.2453,0.2369,0.2226,0,0,0,0,0,0.155,0.1562,0.1631,0.1707,0.1798,0.1863,0.1995,0.2077,0.2248,0.2209,0.2309,0.236,0.2386,0.2462,0.2387,0.259,0.2634,0.2492,0.2531,0.265,0.2671,0.2564,0,0,0,0,0,0,0.1509,0.1566,0.1584,0.1581,0.1607,0.169,0.1767,0.1886,0.1873,0.2054,0.2079,0.2213,0.2275,0.2402,0.2341,0.2363,0.2336,0.2586,0.2579,0.2639,0.2657,0.2674,0.2571,0,0,0,0,0]},{"header":{"parameterUnit":"m.s-1","parameterCategory":2,"la1":30.2991,"la2":30.254,"lo1":-89.0895,"lo2":-89.0444,"dy":0.0017,"dx":0.0017,"nx":28,"ny":28,"refTime":"2023-10-28T03:00:00:Z","depth":"4","parameterNumber":3,"parameterNumberName":"V-component_of_CURRENTS"},"data":[0,0,0,0,0,0,0,0,0,0,0,0,0,0,0,0,0,0,0,0,0,0,0,0,0,0,0,0,0,0,0,0,0,0,0,0,0,0,0,0,0,0,0,0,0,0,0,0,0,0,0,0,0,0,0,0,0,0,0.0237,0.0237,0,0.0211,0.0211,0.021,0.0192,0.0192,0.0192,0.0192,0.016,0.0159,0.0158,0,0,0,0,0,0,0,0,0,0,0,0,0,0.0234,0.0234,0.0237,0.0237,0.0237,0.0211,0.0211,0.021,0.0192,0.0192,0.0192,0.0192,0.016,0.0159,0.0158,0,0,0,0,0,0,0,0,0,0,0,0,0,0.0224,0.0234,0.0237,0.0225,0.0224,0.0211,0.0211,0.021,0.0192,0.0192,0.0192,0.0192,0.0161,0.0159,0.0158,0.0154,0,0,0.0155,0.0154,0,0,0,0,0,0,0,0,0.0224,0.0224,0.0227,0.0226,0.0224,0.0205,0.0198,0.0191,0.0192,0.0203,0.0192,0.0191,0.0175,0.0173,0.0167,0.0152,0.0151,0.0155,0.0154,0.0153,0.0153,0,0,0,0,0,0,0,0.0225,0.0225,0.0226,0.0227,0.0225,0.0208,0.0207,0.0196,0.019,0.0202,0.0201,0.0199,0.0174,0.0168,0.0166,0.015,0.0155,0.0154,0.0153,0.0153,0.0131,0.0131,0,0,0,0,0,0,0.0232,0.0226,0.0227,0.0226,0.0225,0.0208,0.0207,0.0211,0.019,0.0187,0.0199,0.0198,0.017,0.0168,0.0165,0.0174,0.0153,0.0152,0.0152,0.0131,0.0131,0.0131,0,0,0,0,0,0,0.0232,0.0233,0.0228,0.0225,0.0223,0.0209,0.0213,0.0211,0.0209,0.0188,0.0184,0.0202,0.017,0.0167,0.0164,0.0172,0.0152,0.0151,0.013,0.0131,0.0131,0.0183,0,0,0,0,0,0,0.0232,0.0233,0.024,0.0226,0.0224,0.023,0.0213,0.021,0.0209,0.0207,0.0189,0.0185,0.017,0.0166,0.0163,0.0171,0.015,0.013,0.013,0.0131,0.0181,0.0185,0.0188,0,0,0,0,0,0.0232,0.0245,0.024,0.024,0.0233,0.0231,0.0228,0.0216,0.0209,0.0214,0.0201,0.0186,0.0164,0.0165,0.0161,0.0169,0.013,0.013,0.0131,0.0179,0.0184,0.0188,0,0,0,0,0,0,0.0246,0.0244,0.0238,0.025,0.0244,0.0228,0.0233,0.0222,0.0215,0.0214,0.0192,0.0188,0.0187,0.017,0.0171,0.0162,0.0143,0.0143,0.0181,0.0185,0.0189,0.0202,0.0149,0,0,0,0,0,0.0253,0.0265,0.0254,0.0264,0.0264,0.0249,0.0246,0.0238,0.0228,0.0225,0.0211,0.0195,0.0184,0.0179,0.0166,0.0165,0.0136,0.0164,0.0168,0.0171,0.0178,0.014,0.0141,0.0132,0.0132,0.0132,0,0,0.0261,0.0262,0.0267,0.0268,0.0263,0.0271,0.0247,0.025,0.0257,0.0223,0.023,0.021,0.0186,0.0185,0.0182,0.0173,0.0158,0.0172,0.0175,0.018,0.014,0.0141,0.0142,0.0132,0.0132,0.0132,0,0,0.0284,0.0285,0.03,0.03,0.0297,0.029,0.0294,0.0282,0.0279,0.0279,0.0256,0.0241,0.0226,0.021,0.02,0.0214,0.0178,0.0208,0.0238,0.02,0.0201,0.0201,0.0163,0.016,0.0209,0.0209,0.0209,0,0.0292,0.0313,0.0304,0.0318,0.0326,0.0304,0.0322,0.0315,0.0303,0.0304,0.0289,0.0258,0.0238,0.0232,0.0237,0.0223,0.0195,0.0226,0.0206,0.0205,0.0204,0.0165,0.0161,0.0212,0.0212,0.0211,0.0211,0,0.0323,0.0341,0.0352,0.0366,0.0372,0.0385,0.0376,0.0379,0.037,0.0356,0.0347,0.0312,0.0294,0.0281,0.0266,0.0253,0.0233,0.0216,0.0198,0.0209,0.0167,0.0161,0.0216,0.0215,0.0214,0.0213,0,0,0.0342,0.037,0.0374,0.0396,0.0401,0.0413,0.0427,0.0434,0.0447,0.0417,0.0424,0.039,0.0363,0.0349,0.0318,0.0284,0.0253,0.0254,0.0251,0.0223,0.0169,0.0155,0.0147,0.0232,0.0231,0.0231,0.0141,0,0.0371,0.0415,0.0419,0.0464,0.0487,0.0482,0.05,0.05,0.0491,0.0491,0.0443,0.0436,0.0391,0.0386,0.0343,0.0282,0.024,0.0279,0.0158,0.0155,0.0146,0.0141,0.0229,0.0137,0.0135,0.0134,0.0134,0,0.0401,0.043,0.0482,0.0524,0.0534,0.0558,0.0591,0.0604,0.0591,0.058,0.0552,0.0513,0.0468,0.0425,0.0313,0.034,0.0262,0.0202,0.0197,0.0164,0.0131,0.0122,0.0122,0.0123,0.0124,0.0125,0.0126,0,0.0426,0.0475,0.0525,0.0538,0.0578,0.0608,0.063,0.0635,0.0658,0.0642,0.0649,0.0575,0.0552,0.0442,0.0319,0.0317,0.0185,0.0164,0.0072,0.0069,0.0086,0.0087,0.0076,0.0076,0.0076,0.0077,0.0077,0,0.0456,0.0496,0.0547,0.0574,0.0642,0.0652,0.0714,0.072,0.0736,0.0768,0.0703,0.0702,0.0556,0.0463,0.0337,0.0189,0.0193,0.0077,0.0046,0.0109,0.0114,0.0082,0.0083,0.0073,0.0074,0.0075,0.0075,0,0.0476,0.0505,0.0568,0.0628,0.0658,0.0707,0.0782,0.0817,0.0826,0.0868,0.0869,0.0798,0.0679,0.0518,0.0339,0.0225,0.0077,0.0019,0.0101,0.0076,-0.002,-0.0014,-0.0089,-0.009,-0.0091,-0.0092,-0.0093,0,0.0489,0.0524,0.0613,0.0659,0.0695,0.0772,0.0824,0.0862,0.0903,0.0926,0.0945,0.0855,0.0784,0.0522,0.0344,0.0092,0.0052,-0.0033,-0.0031,-0.0014,-0.0037,-0.0029,-0.0023,-0.0094,-0.0095,-0.0095,-0.0095,0,0.0513,0.0548,0.0601,0.0695,0.0768,0.0851,0.093,0.0967,0.1011,0.1024,0.1005,0.0878,0.0741,0.053,0.0331,0.015,0.0019,-0.0044,-0.0044,-0.0043,-0.0022,-0.0041,-0.0034,-0.0099,-0.0098,-0.0098,-0.0098,0,0.0532,0.0571,0.0641,0.0727,0.0818,0.0904,0.0947,0.0997,0.104,0.1061,0.1052,0.0911,0.0829,0.056,0.038,0.0197,0.0147,0.0077,0.007,0.0072,0.0141,0.0192,0.0156,0,0,0,0,0,0.0547,0.0589,0.0664,0.0757,0.0848,0.0909,0.1005,0.1038,0.1085,0.1078,0.1068,0.0941,0.0688,0.0582,0.0396,0.0345,0.0104,0.0118,0.0017,-0.0118,-0.0114,-0.0063,0,0,0,0,0,0,0.0553,0.0622,0.0659,0.077,0.0837,0.0945,0.1011,0.1047,0.1041,0.1059,0.0927,0.088,0.0631,0.0792,0.0388,0.0335,0.0241,0.0006,0.0002,-0.0121,-0.0117,-0.0114,-0.0059,0,0,0,0,0]}]]